Location: Newark
(50.1751°N, 5.6239°W)
Time: 16:09:48
(UTC+00:00)

Nauka - Pass Details

Date: 21 September 2021
Orbit: 418 x 423 km, 51.6° (Epoch: 21 October)

Event Time Altitude Azimuth Distance (km) Brightness Sun altitude
Rises 19:37:49 0° 247° (WSW) 2,358 ? -12.7°
Reaches altitude 10° 19:39:55 10° 246° (WSW) 1,497 ? -13.1°
Maximum altitude 19:43:16 77° 162° (SSE) 435 ? -13.6°
Enters shadow 19:45:10 24° 78° (ENE) 923 ? -13.9°
